DLH2062 EDDM-EDDH

Flight info

Callsign DLH2062
Flight time 0h 55m
Altitude 36000
Route INPUD3Q INPUD Y102 UPALA M726 NARUS DCT ABGUS DCT DIRBO T902 RARUP RARUP3P
Aircraft A320/M-SDE3FGHIRWY/LB1

Departure

Time 2026-05-04 13:24
Airport Munich Airport (EDDM)

Arrival

Time 2026-05-04 14:20
Airport Hamburg Helmut Schmidt Airport (EDDH)
Time Latitude Longitude Altitude Speed Heading
2026-05-04 13:10 48.35840 11.79231 1485 ft 0 kts 263°
2026-05-04 13:16 48.35842 11.79259 1471 ft 4 kts 263°
2026-05-04 13:16 48.35845 11.79299 1474 ft 4 kts 263°
2026-05-04 13:16 48.35848 11.79331 1472 ft 4 kts 268°
2026-05-04 13:17 48.35845 11.79370 1472 ft 4 kts 304°
2026-05-04 13:17 48.35827 11.79389 1475 ft 3 kts 353°
2026-05-04 13:17 48.35810 11.79392 1474 ft 1 kts 353°
2026-05-04 13:19 48.35820 11.79391 1476 ft 7 kts 354°
2026-05-04 13:19 48.35908 11.79368 1482 ft 15 kts 340°
2026-05-04 13:19 48.36015 11.79330 1485 ft 17 kts 354°
2026-05-04 13:19 48.36089 11.79247 1478 ft 15 kts 265°
2026-05-04 13:20 48.36076 11.79082 1474 ft 21 kts 263°
2026-05-04 13:20 48.36056 11.78827 1485 ft 26 kts 263°
2026-05-04 13:20 48.36035 11.78546 1482 ft 28 kts 263°
2026-05-04 13:20 48.36012 11.78251 1485 ft 29 kts 263°
2026-05-04 13:21 48.35988 11.77942 1479 ft 30 kts 263°
2026-05-04 13:21 48.35966 11.77625 1485 ft 31 kts 264°
2026-05-04 13:21 48.35938 11.77296 1485 ft 30 kts 263°
2026-05-04 13:21 48.35926 11.77115 1478 ft 12 kts 273°
2026-05-04 13:22 48.35963 11.77021 1478 ft 10 kts 309°
2026-05-04 13:22 48.36016 11.76975 1479 ft 9 kts 354°
2026-05-04 13:22 48.36088 11.76964 1485 ft 12 kts 353°
2026-05-04 13:22 48.36192 11.76946 1485 ft 17 kts 353°
2026-05-04 13:23 48.36275 11.76931 1480 ft 6 kts 355°
2026-05-04 13:23 48.36295 11.76986 1485 ft 9 kts 86°
2026-05-04 13:23 48.36314 11.77254 1480 ft 59 kts 82°
2026-05-04 13:23 48.36390 11.78226 1482 ft 125 kts 83°
2026-05-04 13:24 48.36515 11.79757 1669 ft 158 kts 81°
2026-05-04 13:24 48.36631 11.81415 2404 ft 161 kts 84°
2026-05-04 13:24 48.36755 11.83138 2993 ft 175 kts 83°
2026-05-04 13:25 48.37553 11.86918 4016 ft 217 kts 45°
2026-05-04 13:25 48.38952 11.87975 4495 ft 240 kts
2026-05-04 13:25 48.40675 11.87821 5108 ft 259 kts 348°
2026-05-04 13:25 48.42327 11.86655 5846 ft 273 kts 321°
2026-05-04 13:26 48.43586 11.84490 6757 ft 279 kts 304°
2026-05-04 13:26 48.44724 11.82107 7725 ft 282 kts 304°
2026-05-04 13:26 48.45902 11.79716 8665 ft 286 kts 305°
2026-05-04 13:26 48.47136 11.77334 9631 ft 290 kts 306°
2026-05-04 13:27 48.48421 11.74956 10515 ft 294 kts 307°
2026-05-04 13:27 48.49744 11.72576 11335 ft 299 kts 307°
2026-05-04 13:27 48.51101 11.70175 12157 ft 303 kts 307°
2026-05-04 13:27 48.52481 11.67747 12961 ft 307 kts 307°
2026-05-04 13:28 48.53866 11.65314 13751 ft 312 kts 307°
2026-05-04 13:28 48.55290 11.62808 14461 ft 316 kts 307°
2026-05-04 13:28 48.56880 11.60481 15185 ft 323 kts 320°
2026-05-04 13:28 48.58838 11.58682 15641 ft 342 kts 333°
2026-05-04 13:29 48.61129 11.57321 15788 ft 365 kts 337°
2026-05-04 13:29 48.63575 11.55921 16031 ft 384 kts 337°
2026-05-04 13:29 48.66100 11.54482 16596 ft 390 kts 337°
2026-05-04 13:29 48.68652 11.53025 17229 ft 394 kts 337°
2026-05-04 13:30 48.71194 11.51564 17870 ft 398 kts 336°
2026-05-04 13:30 48.73788 11.50063 18495 ft 401 kts 336°
2026-05-04 13:30 48.76404 11.48541 19036 ft 404 kts 336°
2026-05-04 13:30 48.79037 11.47009 19603 ft 407 kts 336°
2026-05-04 13:31 48.81687 11.45470 20159 ft 409 kts 336°
2026-05-04 13:31 48.84351 11.43922 20709 ft 412 kts 336°
2026-05-04 13:31 48.87036 11.42359 21244 ft 415 kts 336°
2026-05-04 13:31 48.89738 11.40780 21780 ft 417 kts 336°
2026-05-04 13:32 48.92420 11.39212 22303 ft 420 kts 336°
2026-05-04 13:32 48.95154 11.37614 22817 ft 423 kts 336°
2026-05-04 13:32 48.97910 11.36003 23316 ft 425 kts 336°
2026-05-04 13:32 49.00676 11.34378 23786 ft 428 kts 336°
2026-05-04 13:33 49.03462 11.32737 24180 ft 431 kts 336°
2026-05-04 13:33 49.06265 11.31083 24588 ft 433 kts 336°
2026-05-04 13:33 49.09081 11.29424 24986 ft 435 kts 336°
2026-05-04 13:33 49.11914 11.27759 25404 ft 437 kts 336°
2026-05-04 13:34 49.14765 11.26088 25819 ft 440 kts 336°
2026-05-04 13:34 49.17586 11.24431 26204 ft 442 kts 336°
2026-05-04 13:34 49.20529 11.22992 26593 ft 447 kts 344°
2026-05-04 13:34 49.23622 11.22253 26966 ft 454 kts 353°
2026-05-04 13:35 49.26796 11.22182 27336 ft 458 kts 358°
2026-05-04 13:35 49.33201 11.22245 28060 ft 463 kts 358°
2026-05-04 13:35 49.36430 11.22271 28405 ft 465 kts 358°
2026-05-04 13:36 49.39670 11.22298 28743 ft 467 kts 357°
2026-05-04 13:36 49.42890 11.22326 29064 ft 470 kts 357°
2026-05-04 13:36 49.46162 11.22351 29368 ft 472 kts 357°
2026-05-04 13:36 49.49458 11.22374 29698 ft 474 kts 357°
2026-05-04 13:37 49.52768 11.22397 30011 ft 477 kts 357°
2026-05-04 13:37 49.56091 11.22417 30294 ft 478 kts 357°
2026-05-04 13:37 49.59415 11.22432 30692 ft 477 kts 357°
2026-05-04 13:37 49.61609 11.22439 30967 ft 475 kts 357°
2026-05-04 13:38 49.66024 11.22450 31528 ft 473 kts 356°
2026-05-04 13:38 49.69306 11.22455 31951 ft 471 kts 356°
2026-05-04 13:38 49.72536 11.22458 32349 ft 470 kts 356°
2026-05-04 13:38 49.75795 11.22466 32749 ft 468 kts 356°
2026-05-04 13:39 49.79045 11.22475 33177 ft 466 kts 356°
2026-05-04 13:39 49.82288 11.22491 33581 ft 465 kts 356°
2026-05-04 13:39 49.85507 11.22510 33996 ft 463 kts 356°
2026-05-04 13:39 49.88727 11.22529 34340 ft 462 kts 356°
2026-05-04 13:40 49.91937 11.22545 34664 ft 461 kts 356°
2026-05-04 13:40 49.95139 11.22563 34979 ft 460 kts 356°
2026-05-04 13:40 49.98343 11.22582 35277 ft 460 kts 356°
2026-05-04 13:40 50.01502 11.22605 35562 ft 460 kts 356°
2026-05-04 13:41 50.04704 11.22629 35845 ft 460 kts 356°
2026-05-04 13:41 50.07900 11.22649 35977 ft 460 kts 356°
2026-05-04 13:41 50.11106 11.22668 35999 ft 460 kts 356°
2026-05-04 13:42 50.20705 11.22726 35995 ft 460 kts 356°
2026-05-04 13:42 50.27060 11.22757 35995 ft 460 kts 356°
2026-05-04 13:43 50.33460 11.22797 35995 ft 460 kts 356°
2026-05-04 13:43 50.39824 11.22249 35995 ft 457 kts 350°
2026-05-04 13:44 50.46144 11.21285 35992 ft 457 kts 350°
2026-05-04 13:44 50.52472 11.20322 35992 ft 457 kts 350°
2026-05-04 13:45 50.58755 11.19375 35993 ft 457 kts 350°
2026-05-04 13:45 50.65082 11.18416 35993 ft 457 kts 350°
2026-05-04 13:46 50.71420 11.17561 35989 ft 458 kts 352°
2026-05-04 13:46 50.77790 11.16937 35994 ft 458 kts 352°
2026-05-04 13:47 50.84154 11.16346 35996 ft 458 kts 352°
2026-05-04 13:47 50.90474 11.15702 35998 ft 458 kts 352°
2026-05-04 13:48 50.96837 11.15016 36000 ft 458 kts 352°
2026-05-04 13:48 51.03205 11.14340 35998 ft 458 kts 352°
2026-05-04 13:49 51.09574 11.13669 35996 ft 459 kts 351°
2026-05-04 13:49 51.15901 11.12995 35991 ft 459 kts 351°
2026-05-04 13:50 51.22274 11.12316 35986 ft 459 kts 351°
2026-05-04 13:50 51.28650 11.11641 35980 ft 459 kts 351°
2026-05-04 13:51 51.35031 11.10959 35978 ft 459 kts 351°
2026-05-04 13:51 51.41369 11.10274 35970 ft 460 kts 351°
2026-05-04 13:52 51.50941 11.09236 35972 ft 460 kts 351°
2026-05-04 13:53 51.57327 11.08545 35977 ft 460 kts 351°
2026-05-04 13:53 51.63666 11.07867 35987 ft 459 kts 351°
2026-05-04 13:54 51.73229 11.06812 35992 ft 459 kts 351°
2026-05-04 13:55 51.82790 11.05762 35991 ft 459 kts 351°
2026-05-04 13:55 51.92264 11.04409 35987 ft 456 kts 347°
2026-05-04 13:56 51.98537 11.02957 35985 ft 455 kts 346°
2026-05-04 13:57 52.07952 11.00773 35819 ft 456 kts 346°
2026-05-04 13:57 52.11094 11.00101 35567 ft 456 kts 347°
2026-05-04 13:58 52.20495 10.98127 34832 ft 456 kts 346°
2026-05-04 13:58 52.26791 10.96774 34355 ft 457 kts 346°
2026-05-04 13:58 52.29942 10.96092 34115 ft 457 kts 346°
2026-05-04 13:59 52.33101 10.95405 33457 ft 459 kts 346°
2026-05-04 13:59 52.36291 10.94703 32357 ft 465 kts 346°
2026-05-04 13:59 52.42732 10.93289 30297 ft 475 kts 346°
2026-05-04 14:00 52.46032 10.92574 29088 ft 481 kts 347°
2026-05-04 14:00 52.52541 10.91186 27835 ft 466 kts 347°
2026-05-04 14:00 52.55738 10.90499 27130 ft 460 kts 347°
2026-05-04 14:01 52.58899 10.89811 26429 ft 456 kts 347°
2026-05-04 14:01 52.62024 10.89120 25742 ft 452 kts 347°
2026-05-04 14:01 52.68213 10.87736 24387 ft 445 kts 347°
2026-05-04 14:02 52.71234 10.87068 23734 ft 442 kts 347°
2026-05-04 14:02 52.74275 10.86398 23023 ft 439 kts 347°
2026-05-04 14:02 52.77286 10.85734 22405 ft 434 kts 347°
2026-05-04 14:02 52.80257 10.85079 21826 ft 428 kts 347°
2026-05-04 14:03 52.83192 10.84432 21276 ft 422 kts 347°
2026-05-04 14:03 52.86087 10.83811 20748 ft 417 kts 348°
2026-05-04 14:03 52.88944 10.83225 20244 ft 411 kts 348°
2026-05-04 14:03 52.91735 10.82666 19752 ft 407 kts 348°
2026-05-04 14:04 52.97290 10.81554 18769 ft 398 kts 348°
2026-05-04 14:04 53.00029 10.81003 18255 ft 395 kts 348°
2026-05-04 14:04 53.02753 10.80452 17701 ft 392 kts 348°
2026-05-04 14:05 53.08125 10.79357 16667 ft 386 kts 348°
2026-05-04 14:05 53.10779 10.78808 16135 ft 383 kts 348°
2026-05-04 14:05 53.13418 10.78265 15610 ft 381 kts 349°
2026-05-04 14:06 53.16009 10.77733 15080 ft 379 kts 349°
2026-05-04 14:06 53.18620 10.77194 14545 ft 378 kts 349°
2026-05-04 14:06 53.21224 10.76656 14004 ft 376 kts 349°
2026-05-04 14:06 53.23818 10.76123 13419 ft 375 kts 349°
2026-05-04 14:07 53.26399 10.75593 12859 ft 372 kts 349°
2026-05-04 14:07 53.28958 10.75065 12311 ft 369 kts 349°
2026-05-04 14:07 53.31499 10.74539 11756 ft 366 kts 349°
2026-05-04 14:07 53.34021 10.74016 11209 ft 363 kts 349°
2026-05-04 14:08 53.36518 10.73496 10646 ft 360 kts 349°
2026-05-04 14:08 53.38955 10.72987 10495 ft 345 kts 349°
2026-05-04 14:08 53.41257 10.72513 10373 ft 332 kts 349°
2026-05-04 14:08 53.43503 10.72051 10251 ft 319 kts 349°
2026-05-04 14:09 53.47768 10.71127 9976 ft 298 kts 345°
2026-05-04 14:09 53.49699 10.70118 9783 ft 287 kts 335°
2026-05-04 14:10 53.53385 10.67699 9091 ft 282 kts 335°
2026-05-04 14:10 53.55199 10.66485 8725 ft 280 kts 335°
2026-05-04 14:10 53.56979 10.65286 8367 ft 278 kts 335°
2026-05-04 14:10 53.58772 10.64073 8018 ft 276 kts 334°
2026-05-04 14:11 53.60431 10.62653 7892 ft 260 kts 319°
2026-05-04 14:11 53.63067 10.58804 7411 ft 247 kts 315°
2026-05-04 14:11 53.64334 10.56872 7075 ft 245 kts 314°
2026-05-04 14:12 53.65594 10.54946 6769 ft 244 kts 314°
2026-05-04 14:12 53.66853 10.53016 6414 ft 244 kts 314°
2026-05-04 14:12 53.69224 10.49033 5704 ft 239 kts 300°
2026-05-04 14:13 53.70021 10.46583 5344 ft 238 kts 295°
2026-05-04 14:13 53.70760 10.44082 4974 ft 238 kts 294°
2026-05-04 14:13 53.71487 10.41574 4618 ft 238 kts 294°
2026-05-04 14:13 53.72210 10.39071 4262 ft 237 kts 295°
2026-05-04 14:14 53.72911 10.36544 3892 ft 238 kts 288°
2026-05-04 14:14 53.73360 10.31107 3328 ft 230 kts 274°
2026-05-04 14:14 53.73489 10.28440 3103 ft 225 kts 275°
2026-05-04 14:15 53.73722 10.23450 2998 ft 202 kts 274°
2026-05-04 14:15 53.73041 10.19186 2919 ft 189 kts 234°
2026-05-04 14:16 53.71394 10.15819 2503 ft 183 kts 233°
2026-05-04 14:16 53.70603 10.14210 2249 ft 172 kts 233°
2026-05-04 14:17 53.69183 10.11319 1835 ft 148 kts 233°
2026-05-04 14:17 53.68555 10.10047 1621 ft 139 kts 234°
2026-05-04 14:17 53.67358 10.07547 1226 ft 135 kts 233°
2026-05-04 14:18 53.66753 10.06341 1118 ft 134 kts 234°
2026-05-04 14:18 53.65548 10.03901 748 ft 136 kts 236°
2026-05-04 14:19 53.64337 10.01446 320 ft 137 kts 233°
2026-05-04 14:19 53.63738 10.00247 137 ft 135 kts 232°
2026-05-04 14:19 53.63152 9.99052 46 ft 123 kts 230°
2026-05-04 14:19 53.62722 9.98178 43 ft 67 kts 231°
2026-05-04 14:20 53.62557 9.97848 41 ft 19 kts 229°
2026-05-04 14:20 53.62454 9.97809 42 ft 15 kts 150°
2026-05-04 14:20 53.62430 9.97938 46 ft 10 kts 82°
2026-05-04 14:21 53.62509 9.98185 47 ft 19 kts 50°
2026-05-04 14:21 53.62597 9.98363 47 ft 21 kts 50°
2026-05-04 14:21 53.62695 9.98557 47 ft 23 kts 49°
2026-05-04 14:21 53.62802 9.98775 47 ft 25 kts 50°
2026-05-04 14:22 53.62918 9.99011 47 ft 27 kts 51°
2026-05-04 14:22 53.63025 9.99229 45 ft 22 kts 51°
2026-05-04 14:22 53.63120 9.99448 46 ft 25 kts 54°
2026-05-04 14:22 53.63225 9.99673 48 ft 22 kts 49°
2026-05-04 14:23 53.63419 10.00048 48 ft 11 kts 52°
2026-05-04 14:23 53.63411 10.00153 48 ft 9 kts 149°
2026-05-04 14:23 53.63351 10.00162 46 ft 8 kts 169°
2026-05-04 14:24 53.63326 10.00230 48 ft 7 kts 88°
2026-05-04 14:24 53.63329 10.00306 48 ft 6 kts 86°
2026-05-04 14:24 53.63330 10.00346 48 ft 0 kts 86°